PRAETORIAN SDA_620

Last updated on Sun Jun 21 2026 00:03:46 GMT+0000 (Coordinated Universal Time)

1 65583U 25203U 26171.29624150 .00000124 00000+0 10119-3 0 9996 2 65583 81.3024 7.9286 0007932 172.6670 187.4604 13.83617991 39122
UTC large
Height (km)
Speed (km/s)
/
Latitude / Longitude
Inclination (degrees)
Orbital Period (minutes)
Azimuth
Elevation
Range (km)
Doppler Factor

Next 0 passes for location: London (51.5072 / 0.1276)

No passes found over London.
PRAETORIAN SDA_620